{"data":{"norad_id":43432,"epoch":"2026-09-20T00:25:23.446272Z","epoch_age_seconds":67457,"freshness":"FRESH","line1":"1 43432U 18037A   26263.01763248 -.00000349  00000+0  00000+0 0  9990","line2":"2 43432   0.0072 168.9131 0000220  64.4394 259.9773  1.00269351 30912","mean_motion":1.00269351,"eccentricity":2.2e-5,"inclination_deg":0.0072,"raan_deg":168.9131,"arg_perigee_deg":64.4394,"mean_anomaly_deg":259.9773,"bstar":0,"rev_number":3091,"period_min":1436.1317647304,"perigee_km":35786.349674435,"apogee_km":35788.204952665,"semimajor_km":42165.41431355,"source":"CELESTRAK","updated_at":"2026-09-20T09:00:35.260113Z"}}